Location: Fambridge
(51.6333°N, 0.6833°E)
Time: 20:01:56
(UTC+00:00)

Daily predictions for brighter satellites

Satellite Brightness Start Highest point End
(mag) Time Altitude Azimuth Time Altitude Azimuth Time Altitude Azimuth
Cosmos 2084 Rocket 3.4 16:35:07 10° SW 16:39:16 75° SE 16:43:29 10° NE
SMAP 3.3 16:38:27 10° SE 16:42:55 48° ENE 16:47:25 10° N
Cosmos 540 Rocket 3.7 16:38:24 10° NNW 16:43:24 47° ENE 16:48:19 10° SE
Cosmos 2297 Rocket 4.4 16:45:29 10° NNW 16:46:44 11° N 16:47:59 10° N
Cosmos 1869 4.2 16:45:24 10° SE 16:48:11 22° E 16:50:58 10° NE
SWARM A 4.2 16:44:52 10° N 16:48:13 90° E 16:51:32 10° S
YAOGAN 1 4.1 16:47:15 10° E 16:49:47 16° ENE 16:52:20 10° NNE
IGS 5A 3.3 16:46:00 10° SSE 16:49:58 77° ENE 16:53:57 10° N
Cosmos 1763 Rocket 3.5 16:46:41 10° NNW 16:51:54 62° ENE 16:57:00 10° SE
SL-16 R/B 2.6 16:46:08 10° NNE 16:52:26 79° ESE 16:58:42 10° SSW
SAR-Lupe-5 4.3 16:51:54 10° NNE 16:54:29 55° ESE 16:57:05 10° S
Landsat 7 4.0 16:50:38 10° SE 16:55:04 46° ENE 16:59:32 10° N
Cosmos 1340 Rocket 4.5 16:52:45 10° SW 16:56:15 32° WNW 16:59:44 10° N
Timation 1 Rocket 4.3 16:51:29 10° NNW 16:57:28 70° NE 17:03:25 10° SE
RESURS DK-1 2.2 16:53:35 10° NNW 16:57:37 68° NE 17:01:35 10° SE
Cosmos 1140 Rocket 3.5 16:54:39 10° SSW 16:59:47 70° ESE 17:04:56 10° NNE
CZ-4C R/B 3.0 16:56:12 10° W 17:00:41 41° NNW 17:06:27 10° NE
Aureole 3 Rocket 3.7 16:59:03 10° SE 17:01:16 19° E 17:03:38 10° NE
UNK 3.8 17:00:50 10° NNE 17:05:24 56° ESE 17:09:55 10° S
Meteor 1-28 Rocket 2.9 17:02:12 10° NNE 17:05:36 87° W 17:08:57 10° SSW
Meteor 2-12 Rocket 4.4 17:02:21 10° N 17:08:25 64° ENE 17:14:26 10° SSE
Cosmos 1400 Rocket 4.3 17:08:30 10° ESE 17:10:42 15° E 17:11:08 15° E
Cosmos 1536 Rocket 4.4 17:07:10 10° N 17:11:02 28° ENE 17:14:52 10° SE
SJ-12 3.7 17:07:39 10° SSE 17:11:23 59° ENE 17:15:08 10° N
Okean 2 Rocket 4.3 17:14:56 10° SE 17:18:07 20° E 17:20:03 15° NE
Cosmos 1269 Rocket 4.2 17:14:10 10° SSW 17:19:26 77° WNW 17:24:44 10° NNE
CORIOLIS 4.3 17:15:42 10° SSE 17:21:04 78° WSW 17:26:27 10° NNW
IRS-1C 4.1 17:17:13 10° SSE 17:22:33 87° ENE 17:27:55 10° NNW
ATLAS CENTAUR R/B 3.0 17:22:23 10° WNW 17:24:56 19° NNW 17:27:28 10° NNE
SL-12 R/B(2) 4.4 17:18:38 10° SSW 17:26:29 62° ESE 17:35:47 11° NE
COSMO-SKYMED 1 3.7 17:26:49 19° E 17:27:13 20° E 17:30:15 10° SE
Resurs 01 Rocket 3.2 17:30:11 16° NE 17:30:11 16° NE 17:32:21 10° NNE
Thor Agena Rocket 4.5 17:24:41 10° S 17:29:50 53° W 17:35:00 10° NNW
Cosmos 1943 Rocket 2.3 17:24:45 10° S 17:30:14 58° ESE 17:35:17 12° NE
Cosmos 1782 Rocket 4.2 17:26:59 10° SSW 17:31:21 58° WNW 17:35:45 10° N
Timation 2 Rocket 4.2 17:24:47 10° SSW 17:31:34 65° ESE 17:38:20 10° NE
Cosmos 841 Rocket 3.9 17:27:34 10° NNW 17:32:34 42° NE 17:37:33 10° SE
Cosmos 2058 2.8 17:29:15 10° N 17:33:11 55° ENE 17:37:05 10° SSE
Cosmos 2233 Rocket 4.3 17:26:59 10° SSW 17:33:17 71° WNW 17:39:38 10° N
Cosmos 1300 Rocket 4.5 17:29:34 10° SSW 17:33:49 49° WNW 17:38:05 10° N
Cosmos 2251 Rocket 3.9 17:29:25 10° S 17:34:23 43° ESE 17:38:36 14° NE
Cosmos 2227 Rocket 4.4 17:34:21 10° NNW 17:35:23 10° N 17:36:26 10° N
BREEZE-M DEB (TANK) 2.9 17:34:39 10° SW 17:37:06 42° SSE 17:39:49 21° E
Cosmos 2082 Rocket 2.1 17:32:09 10° NNW 17:37:48 80° ENE 17:43:25 10° SSE
ATLAS 2AS CENTAUR R/B 3.2 17:31:45 10° NW 17:38:11 41° NNE 17:42:14 21° E
Cosmos 1346 Rocket 4.0 17:36:35 10° N 17:38:39 21° NE 17:38:39 21° NE
Cosmos 2061 Rocket 4.3 17:34:44 10° SSW 17:40:59 69° WNW 17:47:14 10° N
Cosmos 2278 Rocket 2.2 17:38:05 10° SSW 17:43:42 68° ESE 17:48:32 14° NE
IRAS Rocket 4.3 17:38:46 10° SE 17:44:11 56° ENE 17:49:34 10° N
Cosmos 1602 2.9 17:41:25 10° N 17:44:29 78° ENE 17:47:33 10° SSE
MOS 1 Rocket 3.0 17:41:53 10° SSE 17:46:14 81° ENE 17:50:49 10° NNW
Cosmos 1975 Rocket 4.4 17:42:52 10° NNW 17:46:59 42° W 17:51:06 10° SSW
Cosmos 468 Rocket 4.0 17:41:47 10° NNW 17:47:02 88° WSW 17:52:12 10° SSE
AQUARIUS 4.4 17:45:08 10° S 17:49:31 72° WSW 17:53:57 10° NNW
Cosmos 1464 Rocket 4.0 17:44:31 10° SSE 17:50:36 55° E 17:56:40 10° NNE
ARIANE 5 R/B 3.2 17:46:25 10° S 17:51:17 55° WSW 17:56:13 10° NNW
CZ-2D R/B 3.4 17:47:54 10° SSE 17:52:01 65° ENE 17:56:13 10° N
Cosmos 1862 2.9 17:51:59 10° N 17:55:38 70° ENE 17:59:15 10° SSE
USA 215 4.1 17:49:32 10° SSE 17:55:50 49° SW 18:02:11 10° WNW
PSLV R/B 3.4 17:53:54 10° SSE 17:57:49 53° ENE 18:01:46 10° N
ARIANE 6 FM1 Upper Stage 4.4 17:56:01 10° NW 17:58:52 19° N 17:59:56 17° NNE
Geosat FO 4.3 17:57:42 16° SSE 17:59:53 66° WSW 18:02:45 10° NW
Cosmos 2151 Rocket 3.6 17:56:41 10° S 18:01:06 61° E 18:05:04 13° NNE
Cosmos 2263 Rocket 4.5 18:00:23 10° NNW 18:01:25 10° N 18:02:26 10° N
Cosmos 1190 Rocket 4.0 17:56:56 10° S 18:02:07 60° ESE 18:05:26 22° NE
ISS -3.7 18:00:11 10° WSW 18:03:30 63° SSE 18:03:52 57° SE
Cosmos 2034 Rocket 4.1 17:58:41 10° SSE 18:04:36 48° E 18:10:35 10° NNE
Cosmos 1812 2.3 18:02:25 10° SSW 18:05:18 63° WNW 18:06:21 33° N
Cosmos 676 Rocket 4.4 18:00:21 10° S 18:05:18 41° ESE 18:06:43 34° ENE
SKYMED 2 3.5 18:03:51 18° NNE 18:07:00 65° ESE 18:11:19 10° S
Okean 1 Rocket 3.2 18:03:36 10° SSE 18:07:48 46° E 18:08:25 43° ENE
Cosmos 1656 Rocket 4.3 18:03:07 10° SSE 18:07:58 32° ESE 18:07:59 32° ESE
Cosmos 220 Rocket 4.1 18:07:21 10° NNW 18:11:16 48° NE 18:11:16 48° NE
Cosmos 407 Rocket 3.9 18:07:27 10° SW 18:12:34 61° WNW 18:17:08 13° NNE
COSMOS 2406 3.1 18:07:45 10° NNW 18:13:29 83° ENE 18:19:02 11° SSE
Sich 1 Rocket 3.7 18:09:07 10° S 18:13:33 54° E 18:14:56 38° NE
USA 281 3.6 18:11:29 32° E 18:13:45 41° NE 18:19:50 10° NNW
Cosmos 1954 Rocket 3.9 18:09:22 10° S 18:14:32 63° ESE 18:16:53 32° NE
Cosmos 1092 Rocket 4.1 18:09:26 10° N 18:15:33 51° ENE 18:21:33 10° SSE
BlueWalker 3 4.4 18:15:35 10° SSE 18:15:39 10° SSE 18:15:39 10° SSE
SL-19 R/B 4.0 18:14:09 10° SSE 18:19:22 88° ENE 18:24:39 10° NNW
Cosmos 2026 Rocket 3.9 18:14:34 10° N 18:20:37 61° ENE 18:26:40 10° SSE
SJ 16-02 1.1 18:19:27 10° SSW 18:23:44 77° ESE 18:24:29 59° NE
Cosmos 1072 Rocket 4.4 18:18:11 10° S 18:24:20 84° W 18:30:29 10° N
Cosmos 44 Rocket 3.3 18:19:38 10° SW 18:24:27 78° NW 18:26:14 40° NNE
YAOGAN 1 2.5 18:20:49 10° SSE 18:25:05 81° WSW 18:29:23 10° NNW
SPOT 1/Viking Rocket 3.9 18:21:45 10° S 18:26:52 64° WSW 18:32:04 10° NNW
Cosmos 2344 3.8 18:23:34 10° NW 18:31:20 83° NE 18:38:34 21° SE
Cosmos 2297 Rocket 4.1 18:30:32 10° N 18:33:09 14° NNE 18:33:09 14° NNE
SL-16 R/B 4.4 18:30:23 10° N 18:35:26 26° NW 18:40:27 10° WSW
Meteor 2-3 Rocket 3.6 18:30:49 10° NNW 18:36:34 86° ENE 18:42:12 10° SSE
Spot 4 Rocket 4.5 18:32:35 10° S 18:37:37 60° WSW 18:42:41 10° NNW
Resurs 1-3 3.9 18:35:22 10° S 18:39:38 62° W 18:43:55 10° NNW
Cosmos 1400 Rocket 3.3 18:42:01 10° SSW 18:45:45 55° WNW 18:45:47 55° WNW
Cosmos 304 Rocket 3.6 18:43:50 10° SSW 18:48:34 85° WNW 18:48:47 81° N
Cosmos 371 Rocket 3.2 18:45:36 10° SSW 18:50:25 85° WNW 18:50:35 82° NNW
CZ-4C R/B 3.7 18:45:48 10° WNW 18:50:29 27° N 18:51:49 26° NNE
Cosmos 1627 Rocket 4.4 18:47:13 10° N 18:53:23 86° W 18:59:34 10° S
Okean 2 Rocket 3.8 18:51:25 10° SSW 18:55:42 52° WNW 18:57:21 33° NNW
COSMO-SKYMED 1 3.3 19:03:11 49° W 19:03:11 49° W 19:06:49 10° SW
Resurs 01 Rocket 3.1 19:07:36 29° NNW 19:07:36 29° NNW 19:09:49 10° NNW
Geosat 4.3 19:05:27 53° SSW 19:06:18 62° WSW 19:11:17 10° NW
BREEZE-M DEB (TANK) 3.8 19:08:26 10° WSW 19:11:47 70° S 19:11:47 70° S
Cosmos 1943 Rocket 3.6 19:09:13 10° WSW 19:14:16 33° NW 19:16:48 23° N
Cosmos 2227 Rocket 4.4 19:19:06 10° N 19:20:29 13° N 19:20:29 13° N
Cosmos 2278 Rocket 3.8 19:23:18 10° WSW 19:28:15 30° NW 19:30:23 24° N
ATLAS 2AS CENTAUR R/B 2.6 19:22:52 10° NW 19:29:39 79° SW 19:29:41 79° SW
Cosmos 1634 Rocket 4.4 19:30:01 10° SSW 19:42:27 10° N 19:42:31 10° N
Cosmos 2369 Rocket 4.3 19:31:09 10° SSW 19:31:59 15° SSW 19:31:59 15° SSW
USA 281 3.7 19:58:21 57° WSW 19:58:21 57° WSW 20:04:36 10° NNW
SJ 16-02 4.1 19:59:26 10° W 20:01:03 16° WNW 20:01:03 16° WNW
CZ-4C R/B 4.4 20:34:36 10° NW 20:36:46 22° NNW 20:36:46 22° NNW
